Regional Weather Roundup
Issued by NWS

Home | Current Version | Previous Version | Text Only | Print | Product List | Glossary Off
Versions: 1 2 3 4 5 6 7 8 9 10 11 12 13 14 15 16 17 18 19 20 21 22 23 24 25 26 27 28 29 30 31 32 33 34 35 36 37 38 39 40 41 42 43 44 45 46 47 48 49 50

935
ASUS45 KCYS 251510
RWRWY

WYOMING REGIONAL WEATHER ROUNDUP
NATIONAL WEATHER SERVICE CHEYENNE WY
900 AM MDT SUN JUN 25 2017

NOTE:  "FAIR" INDICATES FEW OR NO CLOUDS BELOW 12,000 FEET
WITH NO SIGNIFICANT WEATHER AND/OR OBSTRUCTIONS TO VISIBILITY.

WYZ001-251600-
YELLOWSTONE NATIONAL PARK

CITY           SKY/WX    TMP DP  RH WIND       PRES   REMARKS
LK YELLOWSTONE   N/A     49  38  65 E3        30.50R
W YELLOWSTONE  NOT AVBL

$$
WYZ002>013-054>058-071-098>099-251600-
NORTHERN WYOMING

CITY           SKY/WX    TMP DP  RH WIND       PRES   REMARKS
JACKSON        SUNNY     55  39  54 S5        30.43R
CODY           FAIR      62  36  37 E3        30.40S
GREYBULL       FAIR      65  33  30 CALM      30.33F
WORLAND        FAIR      64  37  36 VRB3      30.34F
SHERIDAN       FAIR      63  41  44 CALM      30.34S
BUFFALO        FAIR      63  38  39 CALM      30.37S
GILLETTE       PTSUNNY   62  38  40 S7        30.35S
NEWCASTLE      FAIR      57  32  38 SW6       30.38F

$$
WYZ014>020-022>026-101>103-251600-
CENTRAL WYOMING

CITY           SKY/WX    TMP DP  RH WIND       PRES   REMARKS
BIG PINEY      FAIR      57  37  47 SW3       30.45S
PINEDALE       FAIR      55  37  50 NW8       30.45F
DUBOIS         FAIR      52  32  46 CALM      30.46F
LANDER         FAIR      58  37  45 NW6       30.40S
RIVERTON       FAIR      59  33  37 NE5       30.40S
CASPER         FAIR      62  34  35 W10       30.37F
DOUGLAS        FAIR      62  34  35 S16       30.38F

$$
WYZ021-027>030-104>119-251600-
SOUTHERN WYOMING

CITY           SKY/WX    TMP DP  RH WIND       PRES   REMARKS
EVANSTON       FAIR      60  37  42 E9        30.42R
KEMMERER         N/A     61  34  36 NE7       30.45S
FORT BRIDGER   FAIR      58  34  40 NE5       30.46S
ROCK SPRINGS   FAIR      60  33  36 NE10      30.43R
DIXON          FAIR      61  35  38 W5        30.40S
RAWLINS        FAIR      56  35  45 NE12      30.43R
SARATOGA       FAIR      57  39  51 N10       30.43S
LARAMIE        PTSUNNY   56  45  66 SE12      30.42S
CHEYENNE       CLOUDY    54  42  64 E7        30.42S
TORRINGTON     PTSUNNY   61  35  37 S7        30.37F
PINE BLUFFS    CLOUDY    55  41  58 E8        30.41S

$$




USA.gov is the U.S. government's official web portal to all federal, state and local government web resources and services.